Location: Mitty Observatory
(35.9148°N, 88.8847°W)
Time: 06:26:21
(UTC-06:00)

LightSail 2 - Pass Details

Date: 20 November 2019
Orbit: 695 x 731 km, 24.0° (Epoch: 05 December)

Event Time Altitude Azimuth Distance (km) Brightness Sun altitude
Exits shadow 04:15:36 11° 181° (S) 2,135 7.6 -28.4°
Drops below altitude 10° 04:16:07 10° 176° (S) 2,195 7.7 -28.3°
Sets 04:20:13 0° 145° (SE) 3,121 9.0 -27.5°
